Weather History for Vernal, UT

Change the Weather History Date:

Friday, November 2, 2012

  Actual Average Record
Temperature  
Mean Temperature 49 °F 41 °F  
Max Temperature 61 °F 53 °F 72 °F (1937)
Min Temperature 36 °F 30 °F 4 °F (1951)
Degree Days  
Heating Degree Days 16 24  
Month to date heating degree days 33 47  
Since 1 July heating degree days 601 751  
Cooling Degree Days 0 0  
Month to date cooling degree days 0 0  
Year to date cooling degree days 810 511  
Moisture  
Dew Point 29 °F    
Average Humidity 48    
Maximum Humidity 70    
Minimum Humidity 25    
Precipitation  
Precipitation 0.00 in 0.03 in 0.48 in (1938)
Month to date precipitation 0.00 0.06  
Year to date precipitation 3.83 8.14  
Sea Level Pressure  
Sea Level Pressure 30.03 in    
Wind  
Wind Speed 3 mph (NW)    
Max Wind Speed 8 mph    
Max Gust Speed -    
Visibility 10 miles    
Events      
T = Trace of Precipitation, MM = Missing Value Source: NWS Daily Summary

Daily Weather History Graph

Daily Weather History Graph

Search for Another Location

Airport:

Trip Planner

Search our weather history database for the weather conditions in past years. The results will help you decide how hot, cold, wet, or windy it might be!

Date:

Astronomy

Nov. 02, 2012 Rise Set
Actual Time 7:49 AM MDT 6:12 PM MDT
Civil Twilight 7:21 AM MDT 6:41 PM MDT
Nautical Twilight 6:48 AM MDT 7:13 PM MDT
Astronomical Twilight 6:17 AM MDT 7:45 PM MDT
Moon 9:02 PM MDT (11/2) 11:13 AM MDT (11/2)
Length of Visible Light 11h 20m
Length of Day
10h 23m
Waning Gibbous, 87% of the Moon is Illuminated
Nov 2
Waning Gibbous
Nov 6
Last Quarter
Nov 13
New
Nov 20
First Quarter
Nov 28
Full

Hourly Weather History & Observations

Time (MDT) Temp. Windchill Dew Point Humidity Pressure Visibility Wind Dir Wind Speed Gust Speed Precip Events Conditions
12:53 AM 45.0 °F - 32.0 °F 60% 29.97 in 10.0 mi Calm Calm - N/A   Clear
1:53 AM 46.0 °F 43.9 °F 32.0 °F 58% 29.96 in 10.0 mi West 4.6 mph - N/A   Clear
2:53 AM 43.0 °F 41.3 °F 32.0 °F 65% 29.98 in 10.0 mi West 3.5 mph - N/A   Clear
3:53 AM 42.1 °F 40.2 °F 30.9 °F 65% 29.99 in 10.0 mi WNW 3.5 mph - N/A   Clear
4:53 AM 42.1 °F 39.2 °F 30.0 °F 62% 29.99 in 10.0 mi NW 4.6 mph - N/A   Clear
5:53 AM 41.0 °F - 32.0 °F 70% 30.02 in 10.0 mi Calm Calm - N/A   Clear
6:53 AM 43.0 °F - 30.9 °F 62% 30.04 in 10.0 mi Calm Calm - N/A   Mostly Cloudy
7:53 AM 39.9 °F - 30.9 °F 70% 30.06 in 10.0 mi Calm Calm - N/A   Clear
8:53 AM 42.1 °F - 32.0 °F 67% 30.09 in 10.0 mi Calm Calm - N/A   Clear
9:53 AM 50.0 °F - 28.9 °F 44% 30.07 in 10.0 mi Calm Calm - N/A   Clear
10:53 AM 53.1 °F - 28.0 °F 38% 30.06 in 10.0 mi Calm Calm - N/A   Clear
11:53 AM 55.0 °F - 28.0 °F 35% 30.06 in 10.0 mi Variable 4.6 mph - N/A   Clear
12:53 PM 57.0 °F - 27.0 °F 32% 30.04 in 10.0 mi Calm Calm - N/A   Clear
1:53 PM 59.0 °F - 27.0 °F 29% 30.01 in 10.0 mi SSW 6.9 mph - N/A   Clear
2:53 PM 60.1 °F - 25.0 °F 26% 29.99 in 10.0 mi East 3.5 mph - N/A   Clear
3:53 PM 60.1 °F - 26.1 °F 27% 29.99 in 10.0 mi Calm Calm - N/A   Clear
4:53 PM 60.1 °F - 27.0 °F 28% 29.99 in 10.0 mi East 3.5 mph - N/A   Clear
5:53 PM 57.0 °F - 27.0 °F 32% 30.01 in 10.0 mi ENE 3.5 mph - N/A   Clear
6:53 PM 51.1 °F - 30.9 °F 46% 30.04 in 10.0 mi West 3.5 mph - N/A   Overcast
7:53 PM 46.9 °F - 30.0 °F 52% 30.07 in 10.0 mi NW 4.6 mph - N/A   Clear
8:53 PM 43.0 °F 39.5 °F 30.0 °F 60% 30.09 in 10.0 mi NNW 5.8 mph - N/A   Clear
9:53 PM 41.0 °F 39.0 °F 28.9 °F 62% 30.09 in 10.0 mi WNW 3.5 mph - N/A   Clear
10:53 PM 37.0 °F - 28.9 °F 73% 30.12 in 10.0 mi Calm Calm - N/A   Clear
11:53 PM 39.9 °F - 28.0 °F 63% 30.10 in 10.0 mi Calm Calm - N/A   Clear